Location: Anhauserh�fe
(48.8408°N, 10.6630°E)
Time: 16:38:24
(UTC+00:00)

Daily predictions for brighter satellites

Satellite Brightness Start Highest point End
(mag) Time Altitude Azimuth Time Altitude Azimuth Time Altitude Azimuth
Cosmos 2026 Rocket 4.2 15:46:15 10° N 15:52:11 49° ENE 15:58:01 10° SSE
NOSS 2-2 (D) 4.3 15:47:49 10° NW 15:52:52 81° NE 16:00:02 10° SE
Cosmos 1634 Rocket 4.5 15:49:21 10° SSE 15:55:12 41° E 16:01:04 10° NNE
Cosmos 2369 3.7 15:53:52 10° NNW 15:59:39 83° ENE 16:05:22 10° SSE
H-2A R/B 2.9 15:55:37 10° ESE 15:59:43 25° ENE 16:03:46 10° N
Cosmos 1812 4.0 15:59:14 10° SE 16:02:16 22° E 16:05:19 10° NE
ATLAS CENTAUR R/B 3.8 16:01:20 10° NW 16:03:47 14° NNW 16:06:20 10° NNE
Cosmos 2221 3.5 16:00:33 10° SSW 16:04:42 48° WNW 16:08:55 10° N
SL-16 R/B 3.1 15:59:59 10° NNW 16:04:50 28° NE 16:09:40 10° ESE
Okean O Rocket 3.2 16:02:17 10° E 16:04:50 15° ENE 16:07:22 10° NNE
USA 308 3.4 16:00:48 10° WNW 16:04:53 43° N 16:08:58 10° E
MOS 1 Rocket 4.2 16:00:33 10° N 16:05:21 52° WNW 16:09:50 10° SW
CZ-2C R/B 2.8 16:01:36 10° SSE 16:06:25 81° ENE 16:11:12 10° NNW
Cosmos 2082 Rocket 2.5 16:03:14 10° S 16:08:42 51° ESE 16:14:10 10° NE
Sich 1 3.1 16:04:38 10° N 16:08:54 58° ENE 16:13:10 10° SSE
Cosmos 1500 Rocket 4.0 16:04:32 10° NNW 16:08:58 68° W 16:13:18 10° S
Cosmos 540 Rocket 3.4 16:04:35 10° SSW 16:09:40 74° ESE 16:14:47 10° NNE
ARGOS 4.2 16:06:51 10° ESE 16:10:55 22° ENE 16:14:58 10° N
FengYun 1-2 T 4.2 16:08:41 10° SSE 16:14:13 71° ENE 16:19:44 10° N
COSMOS 2455 2.9 16:09:17 10° SSW 16:15:14 69° ESE 16:21:16 10° NE
SMAP 3.1 16:12:22 10° SSE 16:16:55 58° ENE 16:21:30 10° N
NOAA 6 4.0 16:13:23 10° SSE 16:18:25 61° ENE 16:23:29 10° N
Cosmos 1805 Rocket 3.6 16:17:05 10° N 16:21:26 83° W 16:25:47 10° S
Cosmos 1933 3.4 16:17:53 10° S 16:21:55 86° WNW 16:25:58 10° N
Cosmos 1833 Rocket 3.0 16:16:26 10° SW 16:22:02 67° WNW 16:27:41 10° NNE
Cosmos 2278 3.7 16:16:23 10° NNW 16:22:08 73° ENE 16:27:48 10° SE
Cosmos 2333 Rocket 3.8 16:20:30 10° N 16:23:48 15° NNE 16:26:02 13° ENE
Cosmos 1602 4.0 16:20:28 10° NNW 16:24:20 72° W 16:28:11 10° S
CZ-4B DEB 4.2 16:22:12 10° SSE 16:27:35 58° ENE 16:32:58 10° N
USA 305 3.1 16:25:13 10° WNW 16:29:23 51° NNE 16:32:51 14° E
CZ-2C R/B 3.6 16:25:48 10° NE 16:29:58 24° E 16:34:07 10° SE
Cosmos 2219 Rocket 3.9 16:28:58 10° N 16:31:52 14° NNE 16:33:20 13° NE
CZ-4B R/B 3.4 16:29:08 10° S 16:33:00 59° WSW 16:36:44 10° NNW
Cosmos 1500 3.2 16:30:52 10° N 16:34:37 83° W 16:38:20 10° S
Meteor 1-14 Rocket 4.3 16:29:01 10° N 16:34:52 67° ENE 16:40:47 10° SSE
Cosmos 44 Rocket 3.2 16:31:25 10° NW 16:36:22 72° NE 16:41:08 10° SE
Meteor 2-16 Rocket 4.4 16:33:00 10° N 16:39:05 65° ENE 16:45:11 10° SSE
COSMOS 2406 3.7 16:35:59 10° SW 16:41:41 63° WNW 16:47:23 10° NNE
Cosmos 1814 Rocket 4.0 16:37:22 10° S 16:42:31 67° ESE 16:47:38 10° NNE
Cosmos 921 Rocket 3.7 16:40:03 10° SSE 16:43:46 31° E 16:45:57 20° NE
Cosmos 1570 Rocket 4.0 16:44:13 10° S 16:49:23 67° ESE 16:54:14 12° NNE
MOS 1-B Rocket 4.3 16:45:31 10° NNE 16:51:26 52° E 16:58:11 10° S
CZ-4B R/B 3.2 16:48:28 10° SE 16:53:40 53° ENE 16:58:50 10° N
Cosmos 2298 Rocket 4.0 16:49:42 10° NNW 16:55:00 61° ENE 17:00:16 10° SE
USA 267 3.3 16:50:26 18° ENE 16:55:31 73° SE 17:02:03 10° SW
CZ-2D R/B 3.1 16:52:09 10° SSE 16:55:58 75° ENE 16:59:47 10° N
MOS 1-B 4.3 16:52:46 10° SSE 16:58:32 75° ENE 17:04:20 10° NNW
Cosmos 1939 Rocket 3.9 16:54:44 10° S 16:58:42 49° W 17:02:39 10° NNW
ATLAS CENTAUR R/B 2.9 16:50:12 10° WSW 16:59:03 64° NW 17:01:31 24° NE
COSMO-SKYMED 1 3.1 16:59:10 23° NE 17:01:22 38° E 17:05:25 10° SSE
Cosmos 1633 Rocket 3.0 16:57:10 10° N 17:01:35 88° WSW 17:05:58 10° S
USA 306 2.9 16:57:32 10° WNW 17:01:47 66° NNE 17:03:51 28° E
Cosmos 1151 Rocket 3.0 16:57:26 10° S 17:01:47 88° E 17:06:11 10° N
Meteor 1-27 Rocket 4.4 16:57:22 10° SSE 17:02:04 29° E 17:04:01 24° NE
Cosmos 1666 2.9 16:59:36 10° NNW 17:03:20 70° W 17:07:01 10° S
Cosmos 1782 3.9 17:00:08 10° SSW 17:03:58 45° WNW 17:07:49 10° N
APEX 3.6 17:00:56 10° S 17:04:16 33° ESE 17:04:23 33° ESE
Landsat 5 4.4 17:05:03 26° ESE 17:05:03 26° ESE 17:07:58 10° SSE
Meteor 2-6 Rocket 4.2 16:59:12 10° S 17:04:50 66° E 17:10:21 10° NNE
Cosmos 2360 Rocket 2.8 17:00:46 10° NNW 17:05:58 35° NE 17:08:17 25° E
SJ-11-01 4.4 17:01:55 10° SE 17:06:30 52° ENE 17:11:07 10° N
ISS -0.7 17:04:46 10° W 17:06:52 16° SW 17:08:59 10° S
PAYLOAD B 4.3 17:02:59 10° SSE 17:08:36 87° WSW 17:14:14 10° NNW
Cosmos 1900 4.2 17:04:09 10° SSW 17:09:00 83° SE 17:11:53 25° NE
Cosmos 2237 4.4 17:03:48 10° NNW 17:09:20 47° NE 17:13:44 16° ESE
YAOGAN 1 4.0 17:11:21 21° NNE 17:11:21 21° NNE 17:13:11 10° N
Cosmos 1818 3.9 17:06:24 10° NW 17:11:52 68° SW 17:17:15 10° SSE
CZ-2C R/B 3.8 17:15:25 10° SSW 17:17:06 12° S 17:18:46 10° SSE
Cosmos 2279 Rocket 4.1 17:11:40 10° SSW 17:17:52 81° W 17:24:07 10° N
ATLAS 5 CENTAUR R/B 1.9 17:11:48 10° NW 17:18:48 69° NE 17:19:39 46° ESE
Cosmos 1536 4.4 17:15:01 10° N 17:16:30 20° NNE 17:16:30 20° NNE
Meteor 2-15 4.3 17:14:09 10° S 17:20:12 70° E 17:26:16 10° NNE
Cosmos 2266 Rocket 4.0 17:14:16 10° N 17:20:42 71° E 17:27:05 10° SSE
ERBS 4.0 17:18:50 10° NW 17:20:46 21° N 17:20:46 21° N
USA 307 2.8 17:18:06 10° WNW 17:22:22 76° NNE 17:23:33 46° E
CZ-4C R/B 3.8 17:15:50 10° NW 17:22:52 52° WSW 17:30:59 10° SSE
SL-08 RB Rocket 3.7 17:20:41 10° SSE 17:25:11 54° ENE 17:29:40 10° N
Lacrosse 5 rocket 2.3 17:21:32 10° WNW 17:25:17 44° SW 17:28:56 12° SSE
SKYMED 3 4.5 17:23:34 30° NNE 17:25:36 66° ESE 17:29:55 10° S
NOSS 3-4 (A) 4.3 17:20:41 10° NW 17:26:49 37° NNE 17:28:52 31° ENE
NOSS 3-4 (C) 4.3 17:20:47 10° NW 17:26:55 37° NNE 17:28:56 31° ENE
Cosmos 1933 Rocket 3.4 17:24:22 10° N 17:28:43 67° ENE 17:33:01 10° SSE
Cosmos 2208 Rocket 4.2 17:23:20 10° SSW 17:28:45 76° WNW 17:32:51 18° NNE
Cosmos 2322 Rocket 2.1 17:23:09 10° NNW 17:28:52 72° ENE 17:34:33 10° SE
ATLAS 2AS CENTAUR R/B 3.8 17:22:55 10° NW 17:29:15 28° NNE 17:31:18 25° NE
COSMOS 2428 4.1 17:25:13 10° N 17:28:44 22° NNE 17:28:44 22° NNE
USA 234 3.5 17:23:32 10° SE 17:30:04 70° SW 17:36:36 10° WNW
Cosmos 2150 Rocket 4.1 17:25:23 10° NNW 17:30:34 77° WSW 17:35:49 10° SSE
Cosmos 1980 Rocket 4.4 17:26:57 10° NW 17:31:36 27° WSW 17:36:13 10° SSW
Cosmos 1328 Rocket 3.9 17:27:29 10° SSW 17:31:53 65° WNW 17:36:01 12° N
Cosmos 1470 Rocket 3.9 17:30:17 10° NNW 17:34:44 69° W 17:39:11 10° S
Cosmos 1544 3.1 17:31:15 10° NNW 17:34:52 78° W 17:38:29 10° S
Cosmos 1125 Rocket 3.7 17:31:33 10° NNW 17:36:48 74° WSW 17:42:03 10° SSE
Cosmos 1812 4.5 17:34:24 10° SW 17:37:50 31° WNW 17:41:20 10° N
Cosmos 1867 3.8 17:32:40 10° SSW 17:37:52 47° ESE 17:38:28 45° E
NOSS 3-3 (A) 4.4 17:33:00 10° S 17:38:09 37° ESE 17:38:22 37° ESE
NOSS 3-3 (C) 4.4 17:33:06 10° S 17:38:15 37° ESE 17:38:27 37° ESE
X-37B 2.7 17:36:27 10° SW 17:37:49 19° SSW 17:37:49 19° SSW
H-2A R/B 2.8 17:33:54 10° S 17:38:53 52° W 17:43:46 10° NNW
DEBRIS 4.4 17:37:07 10° S 17:38:35 23° SSE 17:38:35 23° SSE
Okean O Rocket 1.7 17:36:08 10° SSE 17:40:36 79° WSW 17:45:05 10° NNW
Meteor 1-11 Rocket 3.7 17:36:15 10° NNW 17:41:56 88° W 17:47:43 10° S
Meteor 1-10 Rocket 4.2 17:36:13 10° S 17:41:59 87° W 17:47:11 12° N
GEOS 3 Rocket 3.9 17:41:55 45° NE 17:42:13 46° NE 17:47:09 10° NNW
USA 32 3.9 17:38:44 10° S 17:43:54 68° E 17:46:22 31° NNE
ATLAS CENTAUR R/B 4.0 17:42:52 10° NNW 17:44:13 12° N 17:44:13 12° N
USA 308 2.8 17:40:47 10° WNW 17:45:04 84° SSW 17:45:21 76° SE
SL-16 R/B 2.6 17:43:47 10° NNW 17:49:25 65° WSW 17:55:00 10° SSE
SKYMED 2 3.7 17:47:47 35° N 17:49:33 72° WNW 17:53:52 10° SSW
ARGOS 3.4 17:45:19 10° S 17:50:42 69° WSW 17:56:06 10° NNW
Cosmos 2237 Rocket 4.2 17:47:47 10° N 17:49:04 13° N 17:49:04 13° N
Cosmos 2082 Rocket 3.6 17:47:55 10° WSW 17:53:01 33° NW 17:56:56 16° N
Cosmos 1241 Rocket 4.4 17:55:07 10° SSW 18:01:24 63° ESE 18:01:58 60° E
COSMOS 2455 4.3 17:56:21 10° W 18:01:41 32° NW 18:04:54 20° N
Feng Yun 1-1 Rocket 4.4 17:59:37 10° SSE 18:05:32 80° WSW 18:11:24 10° NNW
USA 305 3.6 18:05:09 10° WNW 18:08:52 52° WSW 18:08:52 52° WSW
Cosmos 2333 Rocket 2.8 18:03:49 10° NNW 18:08:05 43° N 18:08:05 43° N
CZ-2C R/B 3.2 18:06:50 18° N 18:10:36 53° WNW 18:15:36 10° SW
Cosmos 2219 Rocket 3.3 18:11:47 10° NNW 18:15:05 32° N 18:15:05 32° N
Aureole 3 Rocket 3.8 18:13:34 10° SSW 18:18:15 71° WNW 18:24:58 10° N
Nadezhda 2 Rocket 4.4 18:17:43 10° N 18:24:13 83° E 18:24:23 82° ESE
USA 267 3.6 18:37:47 53° N 18:38:26 55° NNW 18:44:46 10° W
Cosmos 2360 Rocket 3.0 18:44:42 10° NW 18:50:08 48° WSW 18:50:08 48° WSW
Cosmos 2322 Rocket 4.4 19:08:11 10° NW 19:12:20 21° W 19:16:28 10° SSW
NOSS 3-4 (A) 4.4 19:11:28 10° NW 19:16:19 51° NW 19:16:19 51° NW
NOSS 3-4 (C) 4.4 19:11:34 10° NW 19:16:24 50° NW 19:16:24 50° NW
ATLAS 2AS CENTAUR R/B 3.9 19:14:30 10° NW 19:18:44 35° NNW 19:18:44 35° NNW
